{"data":{"norad_id":67907,"intl_designator":"2026-036D","name":"STARLINK-36742","alt_names":[],"object_type":"PAYLOAD","status":"ACTIVE","operator":null,"country":"US","launch_date":"2026-02-22","launch_site_code":"AFETR","launch_vehicle":null,"mission":null,"orbit_class":"UNKNOWN","rcs_meters":null,"size_class":null,"mass_kg":null,"dimensions":null,"purposes":["comms"],"wikipedia_slug":null,"has_3d_model":false,"image_url":null,"decayed_at":null,"tle_current":{"epoch":"2026-05-24T13:38:26.828448Z","epoch_age_seconds":108250,"freshness":"FRESH","line1":"1 67907U 26036D   26144.56836607  .00012001  00000+0  44478-3 0  9997","line2":"2 67907  43.0000 177.0172 0001883 269.7660  90.2976 15.27591243 15322","mean_motion":15.27591243,"eccentricity":0.0001883,"inclination_deg":43,"raan_deg":177.0172,"arg_perigee_deg":269.766,"mean_anomaly_deg":90.2976,"bstar":0.00044478,"rev_number":1532,"period_min":94.266054914796,"perigee_km":481.72347565679,"apogee_km":484.30738566218,"semimajor_km":6861.1524306595,"source":"CELESTRAK","updated_at":"2026-05-25T13:38:21.738002Z"}}}